(266) Aline
ephemeris date magn radius delta ra dec elong phase
Today5 Jul 202513.92.393 AU3.105 AU04h09m+22°13'38.4°15.3°
Opposition26 Dec 202512.32.585 AU1.619 AU06h19m+09°41'166.3°5.2°
(266) Aline - 2025-07-05
astro.vanbuitenen.nl


 
-1 year
-1 month
-1 day
Now
+1 day
+1 month
+1 year

The interactive orbit chart above shows the body's path through the solar system and its position at the given date. Green and blue lines are shown perpendicular to the ecliptic plane: Green if the path is above the ecliptic plane, blue if it is below. (Left-click and drag to rotate the view; Right-click and drag to move the view; Use scroll wheel to zoom in our out.)

The orbital elements of Aline are:

            e (Eccentricity)                : 0.1544074
            a (Semimajor axis)              : 2.8043687
            i (Inclination)                 : 13.40322
            Ω (Longitude of ascending node) : 235.81082
            ω (Argument of perihelion)      : 152.11872
            M (Mean anomaly)                : 2.55260
            Epoch                           : 2025 May 05

            L (Longitude of perihelion)     : 208.57845
            B (Latitude of perihelion)      : 6.22311
            P (Orbital period in years)     : 4.70            
        

The light curve chart below shows the estimated development of the minor planet's magnitude.


The all-sky chart below shows the path of the minor planet over the same period as the light curve. The current position is marked yellow.





The following chart shows the path of the minor planet in the next few days. The field of view is optimized for (~10x50) binoculars and finderscopes. A more printer-friendly version of the same chart can be found below.




Ephemerides:
Date       Time       RA (2000)    DEC (2000)    delta   radius  elong  phase   PA    magn
2025-07-05 00:00 UT   04 09 10.7   +22 13 51     3.105    2.393   38.4   15.3   261   13.9 
2025-07-05 23:52 UT   04 11 06.3   +22 15 57     3.098    2.393   38.9   15.5   261   13.9 
2025-07-06 00:00 UT   04 11 06.9   +22 15 58     3.098    2.393   38.9   15.5   261   13.9 
2025-07-07 00:00 UT   04 13 02.9   +22 17 58     3.091    2.394   39.4   15.6   261   13.9 
2025-07-08 00:00 UT   04 14 58.7   +22 19 52     3.084    2.395   39.9   15.8   261   13.9 
2025-07-09 00:00 UT   04 16 54.2   +22 21 39     3.076    2.395   40.4   16.0   261   13.9 
2025-07-10 00:00 UT   04 18 49.5   +22 23 20     3.069    2.396   40.9   16.1   261   13.9 
2025-07-11 00:00 UT   04 20 44.6   +22 24 55     3.062    2.396   41.5   16.3   261   13.9 
2025-07-12 00:00 UT   04 22 39.5   +22 26 24     3.054    2.397   42.0   16.5   262   13.9 
2025-07-13 00:00 UT   04 24 34.1   +22 27 46     3.047    2.398   42.5   16.6   262   13.9 
2025-07-14 00:00 UT   04 26 28.4   +22 29 01     3.039    2.398   43.0   16.8   262   13.9 
2025-07-15 00:00 UT   04 28 22.5   +22 30 10     3.032    2.399   43.5   17.0   262   13.9 
2025-07-16 00:00 UT   04 30 16.3   +22 31 13     3.024    2.400   44.0   17.1   262   13.9 
2025-07-17 00:00 UT   04 32 09.9   +22 32 10     3.016    2.400   44.5   17.3   262   13.9 
2025-07-18 00:00 UT   04 34 03.1   +22 32 59     3.008    2.401   45.1   17.4   262   13.9 
2025-07-19 00:00 UT   04 35 56.1   +22 33 43     3.000    2.402   45.6   17.6   262   13.9 
2025-07-20 00:00 UT   04 37 48.7   +22 34 20     2.992    2.402   46.1   17.7   262   13.9 
2025-07-21 00:00 UT   04 39 41.0   +22 34 51     2.984    2.403   46.6   17.9   263   13.9 
2025-07-22 00:00 UT   04 41 33.0   +22 35 15     2.976    2.404   47.2   18.1   263   13.9 
2025-07-23 00:00 UT   04 43 24.7   +22 35 33     2.968    2.404   47.7   18.2   263   13.9 
2025-07-24 00:00 UT   04 45 16.0   +22 35 44     2.959    2.405   48.2   18.4   263   13.9 


    Terminology:
            
    delta:  distance between minor planet and earth in AU
    radius: distance between minor planet and sun in AU
    magn:   magnitude (brightness) estimate    
    ra:     right ascension in hours (24h = 360deg)
    dec:    declination in degrees
    elong:  elongation in degrees (angle sun-earth-minor planet)    
    phase:  phase angle in degrees (angle sun-minor planet-earth)        
    AU:     Astronomical Unit (mean distance between earth and sun: 149597870.7 km
    

Orbital elements provided by the MPC (Minor Planet Center).
Calculations by a modified version of AAPlus, a C# implementation of the AA+ project by PJ Naughter from the algorithms presented in the book "Astronomical Algorithms" by Jean Meeus.
NGC2000 dso catalog and star labels from VizieR as provided by the Strasbourg astronomical Data Center.
Tycho2 catalog from the ESO archive.